TimeMDT,TemperatureF,Dew PointF,Humidity,Sea Level PressureIn,VisibilityMPH,Wind Direction,Wind SpeedMPH,Gust SpeedMPH,PrecipitationIn,Events,Conditions,WindDirDegrees,DateUTC
12:53 AM,53.1,46.0,77,29.90,10.0,SW,8.1,-,N/A,,Mostly Cloudy,220,2013-09-09 06:53:00
1:53 AM,54.0,45.0,72,29.91,10.0,SW,11.5,-,N/A,,Mostly Cloudy,220,2013-09-09 07:53:00
2:53 AM,53.1,45.0,74,29.89,10.0,SW,9.2,-,N/A,,Clear,220,2013-09-09 08:53:00
3:53 AM,54.0,46.0,75,29.89,10.0,SW,5.8,-,N/A,,Overcast,230,2013-09-09 09:53:00
4:53 AM,55.9,46.0,69,29.89,10.0,SW,9.2,-,0.00,,Overcast,220,2013-09-09 10:53:00
5:53 AM,55.0,46.9,74,29.90,10.0,WSW,6.9,-,N/A,,Overcast,250,2013-09-09 11:53:00
6:53 AM,55.9,46.9,72,29.90,10.0,SW,9.2,-,N/A,,Overcast,220,2013-09-09 12:53:00
7:53 AM,57.0,46.9,69,29.93,10.0,SW,8.1,-,N/A,,Overcast,230,2013-09-09 13:53:00
8:53 AM,57.9,48.9,72,29.92,10.0,SW,11.5,-,0.00,,Mostly Cloudy,220,2013-09-09 14:53:00
9:53 AM,64.0,48.0,56,29.91,10.0,WSW,15.0,-,N/A,,Overcast,240,2013-09-09 15:53:00
10:53 AM,70.0,48.0,46,29.91,10.0,West,19.6,25.3,N/A,,Scattered Clouds,270,2013-09-09 16:53:00
11:53 AM,73.9,48.9,41,29.92,10.0,NNW,18.4,23.0,N/A,,Mostly Cloudy,330,2013-09-09 17:53:00
12:53 PM,73.0,48.9,42,29.91,10.0,NW,18.4,-,N/A,,Scattered Clouds,310,2013-09-09 18:53:00
1:53 PM,75.9,48.0,37,29.91,10.0,NW,20.7,27.6,N/A,,Scattered Clouds,320,2013-09-09 19:53:00
2:53 PM,77.0,46.0,33,29.91,10.0,North,12.7,20.7,N/A,,Mostly Cloudy,350,2013-09-09 20:53:00
3:53 PM,79.0,45.0,30,29.89,10.0,North,16.1,20.7,N/A,,Partly Cloudy,350,2013-09-09 21:53:00
4:53 PM,75.0,46.0,36,29.91,10.0,NNW,12.7,-,N/A,,Scattered Clouds,330,2013-09-09 22:53:00
5:53 PM,68.0,48.9,50,29.94,10.0,WSW,12.7,-,N/A,,Scattered Clouds,250,2013-09-09 23:53:00
6:53 PM,70.0,48.9,47,29.94,10.0,SW,6.9,-,0.01,,Mostly Cloudy,230,2013-09-10 00:53:00
7:53 PM,61.0,51.1,70,29.97,10.0,SSW,10.4,-,N/A,,Clear,210,2013-09-10 01:53:00
8:36 PM,60.8,51.8,72,30.01,10.0,SSW,10.4,-,N/A,,Partly Cloudy,210,2013-09-10 02:36:00
8:53 PM,59.0,50.0,72,29.98,10.0,WSW,8.1,-,N/A,,Partly Cloudy,240,2013-09-10 02:53:00
9:53 PM,59.0,50.0,72,29.99,10.0,SSW,9.2,-,N/A,,Partly Cloudy,200,2013-09-10 03:53:00
10:53 PM,59.0,48.9,69,29.98,10.0,SSW,9.2,-,N/A,,Mostly Cloudy,210,2013-09-10 04:53:00
11:53 PM,55.9,48.0,75,29.99,10.0,SSW,8.1,-,N/A,,Clear,210,2013-09-10 05:53:00